Presure
177 174 178 178 179 184 183 180 185 180 177 167 164 171 164 177 165 167 167 162 170 169 171 170 161 161 156 160 164 161 164 170 160 168 166 170 174 166 163 164 167 183 180 183 187
176 173 172 176 178 173 180 172 179 178 168 158 164 172 167 171 163 162 167 175 174 170 165 169 165 160 167 172 171 167 173 171 171 170 173 178 176 172 176 177 177 174 176 179 182
174 174 177 172 170 170 171 177 172 177 181 165 167 168 169 162 157 170 171 153 173 170 165 177 166 171 166 176 167 164 165 172 164 161 168 170 168 168 171 174 170 172 181 174 174
163 174 165 161 163 171 171 170 163 172 177 176 170 166 158 168 165 169 173 171 154 165 171 172 179 172 175 175 173 176 171 158 162 167 175 177 150 177 178 182 173 177 179 170 172
167 171 169 155 157 165 175 173 184 173 174 183 184 188 173 175 189 167 172 176 169 167 163 179 176 178 182 163 168 168 170 173 171 169 173 174 181 181 188 191 171 170 180 174 171
163 159 163 159 162 174 171 163 170 170 168 156 170 176 179 179 181 179 183 173 189 188 169 176 172 171 181 178 184 170 168 166 172 177 180 189 183 185 163 185 187 188 186 186 186
161 166 160 169 172 173 172 169 177 165 180 176 179 181 175 181 250 257 205 275 202 206 179 177 191 168 168 162 185 191 177 176 176 177 174 179 181 181 178 175 176 182 188 190 185
161 149 164 172 180 184 168 146 165 166 176 169 181 202 216 236 235 233 236 269 252 273 255 218 191 190 190 178 179 178 176 170 175 172 179 177 178 177 177 176 177 188 183 182 190
162 171 172 168 166 174 182 176 181 165 178 178 188 242 227 225 208 199 257 331 273 229 226 251 268 266 206 194 189 179 178 177 182 178 181 179 189 188 183 181 197 191 185 186 183
169 169 173 173 177 174 177 167 175 190 170 187 214 240 208 210 202 214 218 309 317 329 323 284 224 221 257 196 206 195 195 186 184 190 184 187 187 188 188 187 180 181 196 176 180
170 175 166 170 173 180 181 163 169 188 194 197 216 227 190 201 223 208 212 289 264 310 199 320 323 212 218 223 258 261 212 191 191 180 186 188 190 194 205 182 188 170 181 196 192
161 165 169 171 173 187 168 189 160 189 187 206 216 214 211 202 209 202 240 262 288 298 301 284 225 324 212 214 205 254 261 206 163 189 190 182 199 193 192 178 197 198 195 203 184
172 173 173 170 175 171 169 183 189 183 186 199 217 204 204 198 210 201 212 213 260 285 292 299 223 313 316 214 213 205 120 210 216 186 196 198 183 184 154 201 183 138 176 159 167
183 176 173 178 173 172 183 154 177 178 187 198 217 199 197 203 205 203 204 216 243 276 283 282 289 278 216 217 216 214 207 171 207 209 211 134 204 128 205 133 131 137 98 148 161
188 172 180 178 176 157 180 185 191 188 184 189 211 200 187 214 198 186 206 212 211 244 270 270 234 204 203 201 197 198 185 113 168 143 118 172 128 142 137 193 138 134 140 174 142
178 188 176 166 180 158 191 184 184 183 178 196 207 205 194 203 209 206 199 207 203 209 187 250 202 220 184 189 142 179 175 129 161 145 188 140 140 130 128 185 125 131 137 191 206
187 186 187 190 190 186 186 176 186 185 181 199 200 207 187 195 206 207 198 200 204 206 205 171 130 143 195 177 176 124 201 127 183 198 133 120 169 180 184 134 130 167 148 178 132
199 175 188 189 188 181 196 187 173 190 179 199 191 206 185 190 194 206 210 196 201 203 199 205 152 205 124 177 172 170 138 146 199 133 179 190 186 212 119 140 195 127 131 190 177
191 198 182 194 183 192 198 195 178 188 176 201 191 202 204 186 192 194 197 209 210 183 200 143 175 162 198 166 145 141 147 113 199 129 135 197 147 107 148 139 198 128 198 193 185
180 194 199 190 181 175 179 170 192 190 186 200 187 194 201 199 190 192 194 197 201 210 167 205 156 181 133 170 192 139 138 218 220 219 203 198 140 147 206 203 160 185 185 149 172
202 204 197 193 195 187 178 190 187 191 182 190 178 185 188 198 195 187 194 199 196 196 168 171 186 170 182 171 207 151 209 212 148 139 173 179 187 126 175 125 194 198 163 183 146
199 206 199 194 202 197 189 186 199 182 179 187 189 194 188 194 197 199 187 193 143 195 194 196 141 198 198 141 150 140 152 156 182 195 207 176 200 200 206 196 203 187 168 173 299
210 198 202 204 200 183 195 193 182 183 121 105 164 197 174 191 194 195 193 139 190 144 196 186 198 136 179 183 191 127 202 142 127 139 201 191 209 199 169 201 204 191 194 261 193
236 211 207 203 195 193 194 202 160 171 166 179 189 200 185 188 189 194 169 200 182 148 147 143 169 171 151 168 125 172 146 156 141 167 134 200 189 214 137 200 205 168 278 180 291
233 215 220 197 206 203 206 204 207 214 206 201 141 207 209 187 192 187 193 196 166 197 151 138 148 143 144 190 199 187 201 151 137 137 204 209 253 257 260 279 172 149 160 271 291
237 226 218 216 201 199 204 201 194 210 183 212 216 214 196 184 184 185 195 195 196 200 200 150 172 137 145 135 146 208 197 133 125 133 153 211 253 272 273 279 271 272 143 283 296
242 232 213 225 216 209 204 193 196 204 208 209 207 214 195 214 179 188 188 198 220 140 181 195 155 142 159 150 238 193 154 191 216 245 246 193 248 271 254 175 154 272 279 292 303
Wind_Speed
23 25 24 24 23 23 25 28 28 30 31 34 35 36 36 39 38 37 40 39 42 40 41 41 41 40 40 40 39 39 38 37 41 39 39 38 39 40 40 41 43 43 46 48 50
24 26 26 25 26 29 29 33 32 34 36 33 38 38 36 36 40 37 42 44 44 44 39 45 46 41 42 40 41 42 40 40 39 39 40 43 43 41 42 44 46 44 47 50 46
28 29 29 30 31 32 34 33 35 37 37 40 40 43 45 41 34 44 47 30 48 48 48 50 49 50 47 44 42 42 42 43 41 40 42 43 43 43 44 45 42 45 54 49 47
32 31 34 32 33 34 36 37 36 39 41 45 47 45 38 48 49 50 51 50 33 45 50 51 53 54 51 48 45 46 44 40 42 45 48 49 45 49 49 52 49 52 55 49 49
35 36 36 30 32 36 39 37 41 42 43 46 47 47 47 48 51 42 50 53 50 46 42 52 50 51 52 41 44 44 45 47 47 47 49 50 50 51 51 54 51 52 56 54 52
38 36 39 34 36 40 39 35 40 41 41 29 40 44 44 46 47 47 49 47 52 53 47 51 49 48 52 52 54 45 45 44 48 50 51 52 49 50 48 53 55 58 59 59 60
40 44 38 43 43 42 42 40 44 34 48 43 47 48 44 47 50 53 48 55 52 56 49 48 55 45 45 43 51 54 49 48 46 47 48 50 49 50 50 51 55 60 63 62 60
42 32 42 45 47 47 39 30 38 36 44 37 49 53 51 47 48 48 48 43 50 54 62 57 54 54 55 49 49 49 46 43 46 46 50 51 51 50 51 54 56 62 61 61 63
47 51 50 45 41 44 46 44 45 31 42 43 48 41 42 44 43 42 36 24 31 41 49 55 59 60 58 54 53 47 46 45 47 48 52 52 58 51 50 58 61 60 62 62 62
55 52 53 51 50 46 46 40 45 45 36 44 45 37 38 40 40 41 40 24 21 16 20 32 47 48 56 48 54 53 54 49 47 52 53 54 64 49 51 57 57 58 64 58 63
57 58 48 50 49 50 46 39 42 48 45 40 40 39 37 38 36 36 36 25 26 19 35 19 25 41 44 47 54 58 54 47 47 45 53 51 61 56 58 56 60 53 62 66 67
43 51 52 52 52 51 43 46 30 46 44 41 38 35 34 35 33 33 32 26 23 19 17 21 33 25 38 41 42 47 48 47 35 46 51 49 58 58 58 52 62 63 65 67 63
63 61 59 52 55 46 40 47 43 45 44 41 37 34 34 33 29 31 29 30 22 19 17 17 29 19 25 38 39 39 14 43 46 43 50 54 49 54 40 61 51 40 50 52 57
70 65 60 61 54 49 48 31 47 45 44 40 36 33 32 30 29 29 27 25 23 16 16 16 14 19 29 31 33 34 36 34 42 45 48 31 54 29 60 35 37 44 30 50 57
73 61 66 63 56 41 49 49 45 45 42 40 36 33 30 31 30 28 27 24 22 19 15 15 23 30 31 32 34 36 34 14 31 31 16 42 39 42 39 61 44 47 48 57 52
68 74 62 49 61 44 53 51 47 43 39 40 37 34 32 31 29 29 30 26 25 22 25 17 20 26 27 32 24 34 30 26 32 29 48 38 33 40 39 57 41 46 51 72 74
79 74 72 69 66 60 56 51 49 46 42 43 38 36 35 32 30 30 32 31 28 26 26 31 27 23 32 35 34 18 39 28 42 47 36 27 51 54 62 47 47 59 54 64 54
84 67 73 72 66 57 61 52 47 48 44 45 40 38 36 35 32 31 31 34 33 31 29 29 32 30 22 39 36 36 31 33 45 36 46 53 58 62 28 52 62 49 48 75 73
83 84 74 75 63 66 63 54 52 51 45 47 44 41 38 39 37 33 31 32 33 36 36 27 35 35 38 36 36 35 35 20 48 43 44 52 48 19 45 55 65 49 76 78 67
68 83 85 77 63 53 50 49 53 52 51 48 46 45 42 41 41 39 36 36 36 34 35 36 34 38 30 39 44 36 36 48 49 47 45 48 54 57 63 67 60 66 71 56 61
94 92 86 77 77 63 56 63 55 53 50 52 46 46 45 46 45 43 43 41 41 39 39 38 41 37 41 39 48 36 50 51 44 43 46 36 58 45 55 47 73 78 66 68 65
92 95 90 84 84 76 67 62 67 54 52 53 53 55 51 50 50 49 45 46 36 45 45 45 35 46 46 41 41 41 42 41 51 55 62 49 59 65 68 71 78 74 66 72 93
103 88 93 90 81 63 78 71 57 55 36 27 50 57 49 54 53 54 51 35 48 39 51 48 52 35 48 50 52 36 57 39 40 44 62 61 65 71 61 73 80 78 80 90 75
113 103 97 89 81 80 78 83 60 59 59 58 58 61 58 57 58 58 48 58 51 40 41 40 47 48 46 45 35 54 50 42 46 56 49 72 63 81 42 77 83 70 94 70 98
115 95 107 82 91 93 93 80 81 81 71 68 49 64 62 61 59 60 62 60 47 58 40 39 46 43 44 56 60 60 68 50 45 45 67 75 82 88 89 90 69 57 66 92 100
116 108 104 100 95 87 86 79 72 84 66 72 74 68 59 62 55 62 67 65 65 63 62 42 54 41 49 39 48 72 66 44 39 44 50 71 89 93 94 94 95 97 64 98 101
115 108 94 105 103 96 87 81 77 78 76 74 69 68 66 67 57 66 66 66 67 40 57 63 45 44 55 46 73 65 54 66 76 87 89 66 91 97 93 67 55 96 97 99 99
Wind_Direction
245 248 246 249 252 254 252 253 252 248 248 255 261 257 266 250 264 261 260 268 257 261 254 251 258 258 262 257 255 256 256 256 258 257 254 256 256 248 246 248 250 259 255 252 250
250 254 255 254 253 253 255 254 254 250 256 280 268 259 268 267 271 271 267 256 256 258 264 256 262 267 258 253 254 258 256 258 260 262 264 263 263 260 262 263 262 258 257 258 255
253 253 254 256 259 260 261 262 259 261 266 269 268 269 269 277 280 268 265 278 261 266 271 254 266 259 262 253 257 257 260 259 262 266 268 268 266 265 266 265 260 260 266 260 260
262 259 262 269 271 267 269 270 272 269 269 267 271 275 284 275 279 276 270 273 276 276 267 266 259 262 261 259 261 257 259 263 267 267 265 264 252 265 267 266 267 267 267 263 266
263 263 263 275 276 275 272 277 276 276 278 276 275 275 276 276 272 263 272 271 271 271 271 263 264 263 259 266 264 263 263 262 263 266 266 265 267 269 271 268 268 268 270 268 267
271 272 270 273 278 275 278 281 282 281 283 273 286 282 280 280 277 276 273 268 268 264 263 263 263 263 260 261 259 264 264 264 265 266 268 268 267 268 266 271 271 270 269 269 270
272 271 276 275 273 274 276 278 279 276 282 289 287 285 285 284 284 283 275 273 266 262 259 259 257 259 259 259 260 257 261 263 264 265 267 270 270 271 268 271 270 271 272 272 271
273 257 274 274 271 270 279 258 279 280 283 288 287 288 288 288 287 285 281 278 267 259 255 258 256 256 256 258 258 258 258 258 262 264 268 268 268 268 271 271 270 270 270 271 272
271 269 270 275 279 275 274 277 278 275 284 285 288 297 289 290 286 283 295 323 284 267 260 254 251 252 254 255 257 258 260 262 265 265 267 268 269 267 270 269 271 270 272 274 274
266 267 268 271 272 275 276 279 281 281 287 287 293 295 288 289 287 287 287 324 312 306 285 268 258 254 251 254 254 256 257 260 261 264 264 268 271 269 267 268 270 272 272 275 275
263 263 267 270 272 273 275 276 280 281 284 289 295 293 284 286 294 285 289 323 292 306 262 281 266 254 251 253 252 253 255 256 258 261 265 266 270 273 271 270 271 277 276 275 277
252 265 266 268 269 272 268 275 271 280 285 291 293 289 289 284 287 286 306 310 321 312 298 275 258 263 252 251 252 256 257 258 257 260 264 264 267 271 272 274 275 276 278 279 279
259 259 262 265 269 269 264 274 275 278 282 289 294 287 289 282 291 286 294 289 308 312 299 287 265 264 254 251 254 257 240 261 261 260 263 267 271 271 272 274 276 293 276 280 281
254 258 260 261 264 267 268 242 273 275 280 287 291 282 286 282 285 284 286 292 305 310 298 288 279 263 251 252 256 257 262 261 264 266 266 288 269 310 275 294 298 290 286 283 284
250 255 255 259 261 250 268 269 271 273 277 282 290 282 277 289 279 271 282 284 284 302 297 283 262 260 259 257 259 260 264 264 267 269 311 273 306 292 290 278 285 292 291 284 288
255 251 254 254 259 242 264 265 265 270 272 279 285 279 277 283 282 279 274 277 272 272 264 289 256 261 260 262 263 266 266 287 271 290 274 275 298 307 309 284 306 304 296 285 283
252 252 252 253 256 260 261 262 265 266 270 276 278 277 270 272 282 279 274 274 274 270 263 258 251 263 263 263 266 286 268 295 275 273 293 309 283 278 283 292 305 287 299 291 308
245 250 253 253 256 255 259 259 260 265 264 271 271 274 265 269 270 280 280 273 274 271 268 266 263 261 253 266 271 273 268 272 270 294 281 280 279 278 308 282 286 309 314 286 293
248 246 252 251 253 255 257 258 258 262 264 270 268 272 270 264 267 267 268 279 277 267 272 261 262 263 265 267 272 271 271 290 274 287 286 281 279 314 280 289 286 315 282 288 300
244 247 246 251 248 246 250 245 255 258 261 265 262 269 270 267 265 267 264 267 270 277 254 273 257 263 271 270 274 274 271 277 278 276 279 283 295 288 286 285 296 294 296 306 301
243 243 246 245 249 248 248 253 252 252 256 263 258 262 265 268 265 262 266 267 265 267 264 262 272 264 279 279 281 283 284 285 281 290 290 280 283 307 289 310 286 285 301 306 303
242 241 245 248 249 252 252 248 254 249 252 258 263 263 263 265 268 269 261 266 256 270 269 270 264 276 277 266 268 271 273 277 287 290 294 288 283 286 286 284 283 293 306 302 312
237 241 243 244 247 244 254 251 241 245 247 251 254 259 260 263 265 266 266 253 267 259 273 272 275 262 275 277 283 281 289 273 287 280 291 286 295 284 292 290 287 296 299 310 308
234 237 241 243 245 246 250 254 250 248 256 247 253 259 256 261 263 266 260 269 264 259 261 263 271 273 269 281 277 282 278 289 277 288 291 291 291 296 306 290 290 302 313 303 320
234 234 236 240 241 247 249 251 256 258 255 256 252 261 262 258 260 266 268 269 262 272 266 266 266 269 268 282 287 285 289 279 281 283 293 296 307 304 308 315 299 312 312 319 320
233 235 237 237 241 243 246 250 246 256 244 261 264 266 256 253 258 263 266 269 271 272 274 268 274 271 272 272 273 289 286 283 290 290 291 296 308 315 315 315 315 315 306 320 321
232 232 236 235 238 243 244 244 244 252 256 256 258 266 252 266 255 259 263 268 274 255 270 275 271 268 276 275 295 286 280 293 298 304 304 303 307 315 315 311 315 314 317 318 322